Moose Lake, MN

3:57 PM CST on December 12, 2019 (GMT -0600)
Moose Lake-Carlton County

Weather History for KMZH - November, 2019

Change the Weather History Date:

Tuesday, November 12, 2019

  Actual Average Record
Temperature  
Mean Temperature 6 °F -  
Max Temperature 17 °F 35 °F 60 °F (2011)
Min Temperature -5 °F 19 °F -9 °F (1966)
Degree Days  
Heating Degree Days 59    
Moisture  
Dew Point -2 °F    
Average Humidity 65    
Maximum Humidity 85    
Minimum Humidity 45    
Precipitation  
Precipitation 0.00 in - - ()
Sea Level Pressure  
Sea Level Pressure 30.28 in    
Wind  
Wind Speed 3 mph ()    
Max Wind Speed 12 mph    
Max Gust Speed 16 mph    
Visibility 10.0 miles    
Events      
Averages and records for this station are not official NWS values.
T = Trace of Precipitation, MM = Missing Value Source: Averaged Metar Reports

Daily Weather History Graph

Daily Weather History Graph

Search for Another Location

Airport or City:

Astronomy

Nov. 12, 2019 Rise Set
Actual Time 7:08 AM CST 4:41 PM CST
Civil Twilight 6:35 AM CST 5:14 PM CST
Nautical Twilight 5:59 AM CST 5:50 PM CST
Astronomical Twilight 5:24 AM CST 6:25 PM CST
Moon 5:10 PM CST 6:57 AM CST
Length of Visible Light 10h 38m
Length of Day
9h 33m
Full, 100% of the Moon is Illuminated
Nov 12
Full
Nov 19
Last Quarter
Nov 26
New
Dec 4
First Quarter
Dec 11
Full

Hourly Weather History & Observations

Time (CST) Temp. Windchill Dew Point Humidity Pressure Visibility Wind Dir Wind Speed Gust Speed Precip Events Conditions
12:16 AM 1.4 °F -6.2 °F -4.0 °F 78% 30.52 in 10.0 mi West 3.5 mph - N/A   Scattered Clouds
12:35 AM -0.4 °F - -4.0 °F 85% 30.52 in 10.0 mi Calm Calm - N/A   Scattered Clouds
12:36 AM -0.4 °F - -4.0 °F 85% 30.52 in 10.0 mi Calm Calm - N/A   Scattered Clouds
12:55 AM -0.4 °F - -4.0 °F 85% 30.52 in 10.0 mi Calm Calm - N/A   Scattered Clouds
12:56 AM -0.4 °F - -5.8 °F 78% 30.52 in 10.0 mi Calm Calm - N/A   Scattered Clouds
1:15 AM -2.2 °F - -5.8 °F 85% 30.51 in 10.0 mi Calm Calm - N/A   Clear
1:19 AM -2.2 °F - -5.8 °F 85% 30.51 in 10.0 mi Calm Calm - N/A   Clear
1:38 AM -2.2 °F - -5.8 °F 85% 30.51 in 10.0 mi Calm Calm - N/A   Clear
1:55 AM -2.2 °F - -5.8 °F 85% 30.51 in 10.0 mi Calm Calm - N/A   Clear
2:15 AM -2.2 °F -10.4 °F -7.6 °F 78% 30.51 in 10.0 mi SW 3.5 mph - N/A   Clear
2:35 AM -4.0 °F - -7.6 °F 85% 30.50 in 10.0 mi Calm Calm - N/A   Clear
2:36 AM -4.0 °F -12.4 °F -7.6 °F 85% 30.50 in 10.0 mi WSW 3.5 mph - N/A   Clear
2:58 AM -4.0 °F - -7.6 °F 85% 30.50 in 10.0 mi Calm Calm - N/A   Clear
3:17 AM -4.0 °F - -7.6 °F 85% 30.50 in 10.0 mi Calm Calm - N/A   Clear
3:35 AM -4.0 °F - -7.6 °F 85% 30.49 in 10.0 mi Calm Calm - N/A   Clear
3:36 AM -4.0 °F - -7.6 °F 85% 30.49 in 10.0 mi Calm Calm - N/A   Clear
3:55 AM -4.0 °F -12.4 °F -7.6 °F 85% 30.49 in 10.0 mi WSW 3.5 mph - N/A   Clear
3:56 AM -4.0 °F - -7.6 °F 85% 30.48 in 10.0 mi Calm Calm - N/A   Clear
4:15 AM -4.0 °F - -7.6 °F 85% 30.48 in 10.0 mi Calm Calm - N/A   Clear
4:20 AM -4.0 °F -12.4 °F -7.6 °F 85% 30.48 in 10.0 mi SW 3.5 mph - N/A   Clear
4:37 AM -2.2 °F -10.4 °F -5.8 °F 85% 30.47 in 10.0 mi SW 3.5 mph - N/A   Clear
4:56 AM -2.2 °F - -7.6 °F 78% 30.47 in 10.0 mi Calm Calm - N/A   Clear
5:15 AM -4.0 °F - -7.6 °F 85% 30.46 in 10.0 mi Calm Calm - N/A   Clear
5:16 AM -4.0 °F - -7.6 °F 85% 30.46 in 10.0 mi Calm Calm - N/A   Clear
5:35 AM -4.0 °F - -9.4 °F 78% 30.46 in 10.0 mi Calm Calm - N/A   Clear
5:36 AM -4.0 °F - -9.4 °F 78% 30.46 in 10.0 mi Calm Calm - N/A   Clear
5:59 AM -5.8 °F - -9.4 °F 84% 30.46 in 10.0 mi Calm Calm - N/A   Clear
6:16 AM -5.8 °F - -9.4 °F 84% 30.45 in 10.0 mi Calm Calm - N/A   Clear
6:35 AM -5.8 °F - -9.4 °F 84% 30.44 in 10.0 mi Calm Calm - N/A   Clear
6:36 AM -5.8 °F - -9.4 °F 84% 30.44 in 10.0 mi Calm Calm - N/A   Clear
6:55 AM -5.8 °F -14.5 °F -9.4 °F 84% 30.45 in 10.0 mi SW 3.5 mph - N/A   Clear
6:56 AM -5.8 °F -14.5 °F -9.4 °F 84% 30.45 in 10.0 mi SW 3.5 mph - N/A   Clear
7:15 AM -5.8 °F - -11.2 °F 77% 30.44 in 10.0 mi Calm Calm - N/A   Clear
7:37 AM -4.0 °F - -9.4 °F 78% 30.45 in 10.0 mi Calm Calm - N/A   Clear
7:55 AM -4.0 °F - -7.6 °F 85% 30.44 in 10.0 mi Calm Calm - N/A   Clear
8:16 AM -0.4 °F - -5.8 °F 78% 30.44 in 10.0 mi Calm Calm - N/A   Clear
8:35 AM 3.2 °F - -0.4 °F 85% 30.44 in 10.0 mi Calm Calm - N/A   Clear
8:36 AM 3.2 °F - -0.4 °F 85% 30.44 in 10.0 mi Calm Calm - N/A   Clear
8:58 AM 5.0 °F -2.1 °F 1.4 °F 85% 30.43 in 10.0 mi SW 3.5 mph - N/A   Clear
9:16 AM 6.8 °F -2.0 °F 1.4 °F 79% 30.42 in 10.0 mi SW 4.6 mph - N/A   Clear
9:36 AM 8.6 °F -2.6 °F 1.4 °F 73% 30.41 in 10.0 mi SW 6.9 mph - N/A   Clear
9:55 AM 10.4 °F -0.4 °F 1.4 °F 67% 30.40 in 10.0 mi SW 6.9 mph - N/A   Clear
9:56 AM 10.4 °F -0.4 °F 1.4 °F 67% 30.40 in 10.0 mi SSW 6.9 mph - N/A   Clear
10:15 AM 12.2 °F 1.7 °F 1.4 °F 62% 30.39 in 10.0 mi SW 6.9 mph - N/A   Clear
10:19 AM 12.2 °F 2.9 °F 1.4 °F 62% 30.38 in 10.0 mi SSW 5.8 mph - N/A   Clear
10:38 AM 12.2 °F 2.9 °F -0.4 °F 57% 30.37 in 10.0 mi South 5.8 mph - N/A   Clear
10:55 AM 12.2 °F -0.2 °F -2.2 °F 53% 30.37 in 10.0 mi SSW 9.2 mph - N/A   Clear
11:16 AM 14.0 °F 2.9 °F -2.2 °F 49% 30.36 in 10.0 mi South 8.1 mph - N/A   Clear
11:35 AM 14.0 °F 1.2 °F -0.4 °F 53% 30.35 in 10.0 mi SW 10.4 mph - N/A   Clear
11:36 AM 14.0 °F 1.2 °F -0.4 °F 53% 30.35 in 10.0 mi SSW 10.4 mph - N/A   Clear
11:58 AM 15.8 °F 4.2 °F -0.4 °F 49% 30.34 in 10.0 mi SSW 9.2 mph - N/A   Clear
12:16 PM 15.8 °F 5.1 °F -0.4 °F 49% 30.33 in 10.0 mi SSW 8.1 mph - N/A   Clear
12:35 PM 17.6 °F 7.3 °F -0.4 °F 45% 30.32 in 10.0 mi SSW 8.1 mph - N/A   Clear
12:36 PM 17.6 °F 9.3 °F -0.4 °F 45% 30.31 in 10.0 mi SSW 5.8 mph - N/A   Clear
12:56 PM 17.6 °F 7.3 °F -0.4 °F 45% 30.30 in 10.0 mi South 8.1 mph - N/A   Clear
1:18 PM 17.6 °F 6.4 °F -0.4 °F 45% 30.29 in 10.0 mi South 9.2 mph - N/A   Clear
1:56 PM 17.6 °F 9.3 °F -0.4 °F 45% 30.25 in 10.0 mi South 5.8 mph - N/A   Clear
2:15 PM 17.6 °F 5.0 °F -0.4 °F 45% 30.24 in 10.0 mi SSW 11.5 mph 16.1 mph N/A   Clear
2:16 PM 17.6 °F 5.7 °F -0.4 °F 45% 30.24 in 10.0 mi SSW 10.4 mph 16.1 mph N/A   Clear
2:35 PM 17.6 °F 5.0 °F -0.4 °F 45% 30.23 in 10.0 mi SSW 11.5 mph 16.1 mph N/A   Clear
2:40 PM 17.6 °F 8.2 °F -0.4 °F 45% 30.22 in 10.0 mi South 6.9 mph 16.1 mph N/A   Clear
2:57 PM 17.6 °F 9.3 °F -0.4 °F 45% 30.21 in 10.0 mi South 5.8 mph - N/A   Clear
3:16 PM 17.6 °F 6.4 °F -0.4 °F 45% 30.19 in 10.0 mi South 9.2 mph - N/A   Clear
3:35 PM 17.6 °F 8.2 °F -0.4 °F 45% 30.17 in 10.0 mi South 6.9 mph - N/A   Clear
3:36 PM 17.6 °F 9.3 °F -0.4 °F 45% 30.17 in 10.0 mi South 5.8 mph - N/A   Clear
3:55 PM 15.8 °F 7.2 °F -0.4 °F 49% 30.16 in 10.0 mi South 5.8 mph - N/A   Clear
3:56 PM 15.8 °F 7.2 °F -0.4 °F 49% 30.16 in 10.0 mi South 5.8 mph - N/A   Clear
4:19 PM 15.8 °F 7.2 °F -0.4 °F 49% 30.14 in 10.0 mi South 5.8 mph - N/A   Clear
4:36 PM 14.0 °F 5.1 °F -0.4 °F 53% 30.13 in 10.0 mi SSE 5.8 mph - N/A   Clear
4:55 PM 14.0 °F 5.1 °F -0.4 °F 53% 30.12 in 10.0 mi SSE 5.8 mph - N/A   Clear
4:56 PM 14.0 °F 5.1 °F -0.4 °F 53% 30.12 in 10.0 mi SSE 5.8 mph - N/A   Clear
5:15 PM 14.0 °F 5.1 °F -0.4 °F 53% 30.11 in 10.0 mi South 5.8 mph - N/A   Clear
5:35 PM 14.0 °F 6.5 °F -0.4 °F 53% 30.11 in 10.0 mi South 4.6 mph - N/A   Clear
5:58 PM 14.0 °F 5.1 °F -0.4 °F 53% 30.11 in 10.0 mi South 5.8 mph - N/A   Clear
6:15 PM 14.0 °F 6.5 °F -0.4 °F 53% 30.10 in 10.0 mi South 4.6 mph - N/A   Clear
6:35 PM 14.0 °F 3.9 °F -0.4 °F 53% 30.09 in 10.0 mi South 6.9 mph - N/A   Clear
6:36 PM 14.0 °F 2.0 °F -0.4 °F 53% 30.09 in 10.0 mi South 9.2 mph - N/A   Clear
6:55 PM 14.0 °F 6.5 °F -0.4 °F 53% 30.09 in 10.0 mi South 4.6 mph - N/A   Clear
6:56 PM 14.0 °F 5.1 °F -0.4 °F 53% 30.09 in 10.0 mi South 5.8 mph - N/A   Clear
7:18 PM 14.0 °F 5.1 °F -0.4 °F 53% 30.08 in 10.0 mi South 5.8 mph - N/A   Clear
7:36 PM 14.0 °F 5.1 °F -0.4 °F 53% 30.06 in 10.0 mi South 5.8 mph - N/A   Clear
7:56 PM 14.0 °F 3.9 °F 1.4 °F 57% 30.06 in 10.0 mi South 6.9 mph - N/A   Clear
8:15 PM 14.0 °F 2.9 °F 1.4 °F 57% 30.05 in 10.0 mi South 8.1 mph - N/A   Clear
8:16 PM 14.0 °F 2.9 °F 1.4 °F 57% 30.05 in 10.0 mi South 8.1 mph - N/A   Clear
8:35 PM 14.0 °F 2.9 °F 1.4 °F 57% 30.04 in 10.0 mi South 8.1 mph 16.1 mph N/A   Clear
8:39 PM 14.0 °F 5.1 °F 1.4 °F 57% 30.04 in 10.0 mi South 5.8 mph 16.1 mph N/A   Clear
8:57 PM 14.0 °F 2.9 °F 1.4 °F 57% 30.04 in 10.0 mi South 8.1 mph - N/A   Clear
9:16 PM 14.0 °F 5.1 °F 1.4 °F 57% 30.03 in 10.0 mi South 5.8 mph - N/A   Clear
9:35 PM 14.0 °F 5.1 °F 1.4 °F 57% 30.02 in 10.0 mi South 5.8 mph - N/A   Scattered Clouds
9:36 PM 14.0 °F 5.1 °F 1.4 °F 57% 30.02 in 10.0 mi South 5.8 mph - N/A   Mostly Cloudy
9:55 PM 14.0 °F 2.9 °F 1.4 °F 57% 30.01 in 10.0 mi South 8.1 mph - N/A   Mostly Cloudy
9:56 PM 14.0 °F 5.1 °F 1.4 °F 57% 30.01 in 10.0 mi South 5.8 mph - N/A   Mostly Cloudy
10:19 PM 15.8 °F 5.1 °F 1.4 °F 53% 30.00 in 10.0 mi South 8.1 mph - N/A   Overcast
10:36 PM 15.8 °F 6.1 °F 3.2 °F 58% 29.99 in 10.0 mi South 6.9 mph - N/A   Overcast
10:55 PM 15.8 °F 6.1 °F 3.2 °F 58% 29.98 in 10.0 mi South 6.9 mph - N/A   Overcast
10:56 PM 15.8 °F 5.1 °F 3.2 °F 58% 29.98 in 10.0 mi South 8.1 mph - N/A   Overcast
11:15 PM 15.8 °F 7.2 °F 3.2 °F 58% 29.98 in 10.0 mi South 5.8 mph - N/A   Overcast
11:16 PM 15.8 °F 7.2 °F 3.2 °F 58% 29.98 in 10.0 mi South 5.8 mph - N/A   Overcast
11:35 PM 17.6 °F 9.3 °F 3.2 °F 53% 29.97 in 10.0 mi South 5.8 mph - N/A   Overcast
11:39 PM 17.6 °F 9.3 °F 3.2 °F 53% 29.97 in 10.0 mi South 5.8 mph - N/A   Overcast
11:57 PM 17.6 °F 9.3 °F 5.0 °F 58% 29.96 in 10.0 mi South 5.8 mph - N/A   Overcast